OBJECT D

Satellite information

Favourite Embed

Satellite Type and Status

UNKNOWNDECAYED

Key statistics

Satellite OBJECT D at a glance.

Uptime

439

Days in orbit

Revolutions

≈ 16.5

Per day

Orbit

SSO

Sun Synchronous Orbit

Inclination

97.4

Latest

Satellite identification and parameters

Extended collection of information and parameters for OBJECT D.

Object identification

Identified? True

Debris? False

Object name: OBJECT D

International designator: 2024-039D

Object number (NORAD): 59054

Object ID (CCSDS): 59054

Country: TO BE DETERMINED/UNKNOWN (TBD)

Current information (Y/N): Y

RCS size: SMALL

Orbital parameters

Decay date: May 13, 2025

Period: 87.459 minutes

Inclination: 97.3959 deg

SMA: 6526.745 km

Apoapsis: 154.924 km

Periapsis: 142.297 km

RAAN: 106.4349 deg

Eccentricy: 0.0009673

Argument of periapsis: 220.6269 deg

Mean anomaly: 139.4313 deg

Mean motion: 16.46484924 rev/day

Mean motion (dot): 0.14262333 rev/day2

B* drag term: 0.00028919 1/REarth

Two-line elements (TLE)

Creation date: May 10, 2025, 2:32 a.m.

Reference frame: TEME

Reference center: EARTH

Epoch: May 9, 2025, 3:44 p.m. UTC

TLE line 0: 0 OBJECT D

TLE line 1: 1 59054U 24039D 25129.65559114 .14262333 26739-5 28919-3 0 9994

TLE line 2: 2 59054 97.3959 106.4349 0009673 220.6269 139.4313 16.46484924 67168

Live tracking on map

Satellite OBJECT D has decayed and is no longer in orbit. No tracking available.

In-orbit conjunctions

Satellite OBJECT D has decayed and is no longer in orbit. No conjunctions available.

Associated space launch

Meteor-M satellites are a new generation of Russian meteorological satellites. Hitchhiking Payloads: SITRO-AIS 13-28, Zorkiy-2M-2, Pars 1 (Iran).

OBJECT D was lifted into orbit during the mission ‘Soyuz 2.1b/Fregat-M | Meteor-M No.2-4 & others’, on board a Soyuz 2.1b/Fregat-M space rocket.

The launch took place on Feb. 29, 2024, 5:43 a.m. from Cosmodrome Site 1S.

For more information about the launch, click the button.

Launch to space Soyuz 2.1b/Fregat-M | Meteor-M No.2-4 & others
Soyuz 2.1b/Fregat-M | Meteor-M No.2-4 & others

Agency: Russian Federal Space Agency (ROSCOSMOS)

Status: Launch Successful

Launch date: Feb. 29, 2024, 5:43 a.m. UTC

Rocket: Soyuz 2.1b/Fregat-M

Launch pad: Cosmodrome Site 1S

Location: Vostochny Cosmodrome, Siberia, Russian Federation

...

Latest news about this satellite

There are no fresh news available about this satellite. Check back as we update our databases every day.


Newsletter sign-up

Weekly statistics, charts and insights to help you stay on top of the space industry.